{"data":{"norad_id":55609,"intl_designator":"2023-020AS","name":"STARLINK-5719","alt_names":[],"object_type":"PAYLOAD","status":"ACTIVE","operator":null,"country":"US","launch_date":"2023-02-12","launch_site_code":"AFETR","launch_vehicle":null,"mission":null,"orbit_class":"UNKNOWN","rcs_meters":null,"size_class":null,"mass_kg":null,"dimensions":null,"purposes":["comms"],"wikipedia_slug":null,"has_3d_model":false,"image_url":null,"decayed_at":null,"tle_current":{"epoch":"2026-09-20T21:38:22.204032Z","epoch_age_seconds":65504,"freshness":"FRESH","line1":"1 55609U 23020AS  26263.90164588 -.00000742  00000+0 -17438-4 0  9993","line2":"2 55609  43.0034 331.8501 0001213 275.6755  84.3958 15.27571262198896","mean_motion":15.27571262,"eccentricity":0.0001213,"inclination_deg":43.0034,"raan_deg":331.8501,"arg_perigee_deg":275.6755,"mean_anomaly_deg":84.3958,"bstar":-1.7438e-5,"rev_number":19889,"period_min":94.267287937497,"perigee_km":482.24299583261,"apogee_km":483.9075259271,"semimajor_km":6861.2122608799,"source":"CELESTRAK","updated_at":"2026-09-21T09:00:33.273925Z"}}}